DECAYED
Showing default

YUSAT-1, 47439 (Decayed)

Orbit data source: Space-Track

YUSAT-1, 47439 was a payload satellite owned by NTOU (TW) in LEO that was launched on Sun, 24 Jan 2021 UTC via an FALCON 9 launch vehicle from the Air Force Eastern Test Range (AFETR). Payloads include a variety of satellites, spacecraft, and rockets equipped with specific instruments for various scientific and technological missions. These include communications satellites like Starlink; space stations such as the ISS; scientific satellites like the Hubble; Earth observation satellites from companies like Planet Labs, Umbra, and HawkEye 360; GPS; miniature CubeSats for education and research; and military/defense satellites.

Not visible in the next 10 days
YUSAT-1 details
Identifier
47439, 2021-006AC
Orbit
Decayed
Last TLE update4 months ago
Origin
Flag of TWNTOU (TW / TWN)
ManufacturerNTOU
MissionDecayed Amateur Communications
Bus & MotorCUBESAT 1.5U, Unknown motor
Mass2 kg wet, 2 kg dry
Launch date (UTC)
2021-01-24 (4 years ago)
Launch vehicle
FALCON 9
Launch site
Air Force Eastern Test Range (AFETR)
Object type
Payload
Rocket body
Debris
Shape & HBRBox, Unknown HBR
Radar Cross Section0.025 m², Medium (>0.1 m² and < 1m²)

Expand to show TLE details & history

TLE from 4 months ago
0 YUSAT-1
1 47439U 21006AC  24212.31848082  .15388100  25106-5  32639-3 0  9992
2 47439  97.2965 280.7472 0016137 257.6102 102.3395 16.45450048195890
Epoch: 2024-07-30T07:38Z
Definitive object data (Epoch: 2024-07-30T07:38:36.742Z)
Latitude-0.00002°
Longitude-142.34402°
Altitude156.875 km
Speed7.811 km/s
True Right ascension18h 42m 59s
True Declination0° 00' 00"
Sunlit
Object was in full shadow at TLE epoch
Visualization observer readout
Observer readout values are unavailable because the object's trajectory could not be propagated. This is usually caused when the trajectory data is faulty or the object's orbit has decayed.
Visualization observer readout
Observer readout values are unavailable because the object's trajectory could not be propagated. This is usually caused when the trajectory data is faulty or the object's orbit has decayed.
Orbital elements
Apogee altitude158.672 km
Perigee altitude137.609 km
Semi-major axis6,526.278 km
Eccentricity0.0016137
Inclination97.2965°
RAAN280.7472°
Arg. of periapsis257.6102°
True anomaly102.52007°
Mean anomaly102.3395°
Eccentric anomaly102.42979°
Mean motion4.11666 °/min
BSTAR0.00032639
Orbital period87.45 mins
Loading maneuver chart data...

YUSAT-1 Visibility forecast

Observer location: undefined°, undefined

This satellite is decayed
Span
Click to sort rows by Start time (UTC) header in descending order
Start Az.
Max El. time (UTC)
Max El. Az.
Max El.
End time (UTC)
End Az.
|